Location: Unspecified
(0.0000°N, 0.0000°E)
Time: 07:42:56
(UTC+00:00)

Courier 1B - Pass Details

Date: 29 September 2023
Orbit: 962 x 1208 km, 28.3° (Epoch: 06 December)

Event Time Altitude Azimuth Distance (km) Brightness Sun altitude
Rises 19:34:35 0° 304° (NW) 4,041 11.5 -26.0°
Reaches altitude 10° 19:37:29 10° 306° (NW) 3,052 10.7 -26.8°
Maximum altitude 19:45:00 74° 30° (NNE) 1,149 7.6 -28.6°
Enters shadow 19:45:34 70° 66° (ENE) 1,164 7.6 -28.8°
Drops below altitude 10° 19:52:04 10° 114° (ESE) 2,875 - -30.4°
Sets 19:54:43 0° 116° (ESE) 3,794 - -31.1°
